Sault Ste Marie, MI

2:15 AM EDT on May 24, 2017 (GMT -0400)
Sault Ste Marie Municipal / Sanderson Field

Weather History for KANJ - January, 2014

Change the Weather History Date:

Thursday, January 30, 2014

  Actual Average Record
Temperature  
Mean Temperature 21 °F 15 °F  
Max Temperature 27 °F 23 °F 40 °F (1974)
Min Temperature 14 °F 7 °F -25 °F (1994)
Degree Days  
Heating Degree Days 44 50  
Month to date heating degree days 1662 1488  
Since 1 July heating degree days 5177 4747  
Moisture  
Dew Point 16 °F    
Average Humidity 78    
Maximum Humidity 88    
Minimum Humidity 67    
Precipitation  
Precipitation 0.23 in 0.07 in 0.57 in (1937)
Month to date precipitation 2.58 2.13  
Year to date precipitation 2.58 2.13  
Snow  
Snow 2.60 in 1.00 in 6.40 in (1996)
Month to date snowfall 35.1 30.5  
Since 1 July snowfall 89.8 80.7  
Snow Depth 24.00 in    
Sea Level Pressure  
Sea Level Pressure 29.60 in    
Wind  
Wind Speed 11 mph (SSW)    
Max Wind Speed 20 mph    
Max Gust Speed 27 mph    
Visibility 5 miles    
Events Fog , Snow    
T = Trace of Precipitation, MM = Missing Value Source: NWS Daily Summary

Daily Weather History Graph

Daily Weather History Graph

Search for Another Location

Airport or City:

Trip Planner

Search our weather history database for the weather conditions in past years. The results will help you decide how hot, cold, wet, or windy it might be!

Date:

Astronomy

Jan. 30, 2014 Rise Set
Actual Time 8:03 AM EST 5:38 PM EST
Civil Twilight 7:31 AM EST 6:11 PM EST
Nautical Twilight 6:54 AM EST 6:47 PM EST
Astronomical Twilight 6:19 AM EST 7:22 PM EST
Moon 7:26 AM EST (1/30) 5:53 PM EST (1/30)
Length of Visible Light 10h 40m
Length of Day
9h 35m
Waning Crescent, 0% of the Moon is Illuminated
Jan 30
Waning Crescent
Jan 30
New
Feb 6
First Quarter
Feb 14
Full
Feb 22
Last Quarter

Hourly Weather History & Observations

Time (EST) Temp. Windchill Dew Point Humidity Pressure Visibility Wind Dir Wind Speed Gust Speed Precip Events Conditions
12:55 AM 17.1 °F 5.8 °F 9.0 °F 71% 29.85 in 10.0 mi South 9.2 mph 18.4 mph N/A   Overcast
1:42 AM 16.0 °F 6.3 °F 9.0 °F 74% 29.76 in 10.0 mi SE 6.9 mph - N/A   Mostly Cloudy
1:55 AM 16.0 °F 5.3 °F 9.0 °F 74% 29.80 in 10.0 mi SE 8.1 mph - N/A   Overcast
2:21 AM 17.1 °F 7.6 °F 10.0 °F 74% 29.75 in 10.0 mi SE 6.9 mph - N/A   Overcast
2:55 AM 18.0 °F 9.8 °F 10.9 °F 74% 29.76 in 10.0 mi ESE 5.8 mph - N/A   Mostly Cloudy
3:55 AM 18.0 °F 8.7 °F 10.9 °F 74% 29.74 in 10.0 mi SE 6.9 mph - N/A   Clear
4:55 AM 19.0 °F 8.2 °F 12.0 °F 74% 29.71 in 10.0 mi South 9.2 mph - N/A   Overcast
5:55 AM 21.0 °F 7.6 °F 12.9 °F 71% 29.70 in 10.0 mi South 15.0 mph 20.7 mph N/A   Overcast
6:55 AM 23.0 °F 10.6 °F 14.0 °F 68% 29.69 in 10.0 mi SSW 13.8 mph 27.6 mph N/A   Overcast
7:55 AM 24.1 °F 11.0 °F 15.1 °F 69% 29.68 in 10.0 mi SSW 16.1 mph - N/A   Overcast
8:55 AM 23.0 °F 12.4 °F 15.1 °F 72% 29.69 in 10.0 mi South 10.4 mph - N/A   Mostly Cloudy
9:55 AM 24.1 °F 12.0 °F 17.1 °F 75% 29.68 in 10.0 mi South 13.8 mph - N/A   Overcast
10:55 AM 26.1 °F 15.0 °F 18.0 °F 71% 29.68 in 10.0 mi South 12.7 mph - N/A   Mostly Cloudy
11:45 AM 27.0 °F 15.6 °F 19.0 °F 72% 29.62 in 10.0 mi South 13.8 mph 23.0 mph N/A   Overcast
11:55 AM 26.1 °F 16.2 °F 18.0 °F 71% 29.65 in 10.0 mi South 10.4 mph - N/A   Overcast
12:55 PM 26.1 °F 16.8 °F 18.0 °F 71% 29.62 in 10.0 mi South 9.2 mph - N/A   Overcast
1:55 PM 27.0 °F 18.0 °F 18.0 °F 69% 29.58 in 10.0 mi South 9.2 mph - N/A   Overcast
2:55 PM 27.0 °F 17.3 °F 18.0 °F 69% 29.56 in 9.0 mi South 10.4 mph - N/A   Overcast
3:13 PM 26.1 °F 15.6 °F 19.0 °F 75% 29.51 in 1.8 mi South 11.5 mph 21.9 mph 0.00 in Snow Light Snow
3:27 PM 25.0 °F 16.3 °F 19.9 °F 81% 29.51 in 0.5 mi SSE 8.1 mph - 0.01 in Snow Snow
3:55 PM 24.1 °F 13.7 °F 21.0 °F 88% 29.53 in 0.5 mi SSE 10.4 mph - 0.03 in Fog , Snow Snow
4:09 PM 24.1 °F 13.1 °F 21.0 °F 88% 29.49 in 0.5 mi SSE 11.5 mph 19.6 mph 0.01 in Fog , Snow Snow
4:55 PM 24.1 °F 15.2 °F 21.0 °F 88% 29.51 in 0.8 mi South 8.1 mph - 0.04 in Snow Light Snow
5:29 PM 24.1 °F 14.4 °F 21.0 °F 88% 29.49 in 0.2 mi South 9.2 mph - 0.02 in Fog , Snow Snow
5:55 PM 23.0 °F 13.9 °F 19.9 °F 88% 29.51 in 0.8 mi South 8.1 mph - 0.05 in Snow Light Snow
6:02 PM 24.1 °F 15.2 °F 21.0 °F 88% 29.48 in 1.0 mi South 8.1 mph - 0.01 in Snow Light Snow
6:48 PM 24.1 °F 15.2 °F 21.0 °F 88% 29.48 in 1.2 mi South 8.1 mph - 0.04 in Snow Light Snow
6:55 PM 24.1 °F 15.2 °F 21.0 °F 88% 29.51 in 1.5 mi SSW 8.1 mph - 0.04 in Snow Light Snow
7:21 PM 24.1 °F 16.0 °F 21.0 °F 88% 29.49 in 1.0 mi SW 6.9 mph - 0.01 in Snow Light Snow
7:34 PM 23.0 °F 13.9 °F 21.0 °F 92% 29.48 in 1.8 mi SW 8.1 mph - 0.02 in Snow Light Snow
7:36 PM 23.0 °F 13.9 °F 21.0 °F 92% 29.48 in 2.0 mi SW 8.1 mph - 0.02 in Snow Light Snow
7:44 PM 23.0 °F 14.7 °F 19.9 °F 88% 29.48 in 4.0 mi SW 6.9 mph - 0.02 in Snow Light Snow
7:55 PM 23.0 °F 13.9 °F 19.9 °F 88% 29.52 in 2.5 mi WSW 8.1 mph - 0.02 in Snow Light Snow
8:07 PM 23.0 °F 13.1 °F 21.0 °F 92% 29.49 in 2.5 mi WSW 9.2 mph - 0.00 in Snow Light Snow
8:22 PM 23.0 °F 10.1 °F 18.0 °F 81% 29.51 in 1.8 mi NW 15.0 mph 24.2 mph 0.00 in Snow Light Snow
8:29 PM 21.9 °F 9.2 °F 18.0 °F 85% 29.51 in 0.8 mi NW 13.8 mph 21.9 mph 0.00 in Snow Light Snow
8:32 PM 21.9 °F 8.2 °F 18.0 °F 85% 29.51 in 1.0 mi NW 16.1 mph 21.9 mph 0.00 in Snow Light Snow
8:41 PM 21.0 °F 9.3 °F 17.1 °F 85% 29.53 in 2.0 mi WNW 11.5 mph - 0.00 in Snow Light Snow
8:55 PM 21.0 °F 8.6 °F 17.1 °F 85% 29.57 in 1.8 mi WNW 12.7 mph 21.9 mph 0.00 in Snow Light Snow
9:11 PM 19.9 °F 5.7 °F 16.0 °F 85% 29.55 in 0.8 mi WNW 16.1 mph 25.3 mph 0.01 in Snow Light Snow
9:16 PM 19.9 °F 7.9 °F 16.0 °F 85% 29.55 in 1.0 mi WNW 11.5 mph 25.3 mph 0.01 in Snow Light Snow
9:55 PM 19.0 °F 5.0 °F 15.1 °F 85% 29.62 in 1.2 mi WNW 15.0 mph 23.0 mph 0.02 in Snow Light Snow
10:11 PM 18.0 °F 4.8 °F 14.0 °F 84% 29.60 in 3.0 mi WNW 12.7 mph - 0.00 in Snow Light Snow
10:36 PM 17.1 °F 3.0 °F 12.0 °F 81% 29.61 in 3.0 mi WNW 13.8 mph 23.0 mph 0.00 in Snow Light Snow
10:45 PM 17.1 °F 3.6 °F 12.0 °F 81% 29.61 in 3.0 mi WNW 12.7 mph - 0.00 in Snow Light Snow
10:55 PM 17.1 °F 2.5 °F 12.0 °F 81% 29.65 in 2.5 mi WNW 15.0 mph 26.5 mph 0.00 in Snow Light Snow
11:18 PM 17.1 °F 2.0 °F 10.9 °F 77% 29.63 in 4.0 mi WNW 16.1 mph 21.9 mph 0.00 in Snow Light Snow
11:55 PM 16.0 °F 0.1 °F 10.0 °F 77% 29.68 in 8.0 mi WNW 17.3 mph 24.2 mph 0.00 in Snow Light Snow